Regional Weather Roundup
Issued by NWS

Home | Current Version | Previous Version | Text Only | Print | Product List | Glossary Off
Versions: 1 2 3 4 5 6 7 8 9 10 11 12 13 14 15 16 17 18 19 20 21 22 23 24 25 26 27 28 29 30 31 32 33 34 35 36 37 38 39 40 41 42 43 44 45 46 47 48 49 50

000
ASUS43 KLOT 292008
RWRIL

ILLINOIS REGIONAL WEATHER ROUNDUP
NATIONAL WEATHER SERVICE CHICAGO/ROMEOVILLE IL
300 PM CDT MON AUG 29 2016

NOTE: "FAIR" INDICATES FEW OR NO CLOUDS BELOW 12,000 FEET WITH NO
SIGNIFICANT WEATHER AND/OR OBSTRUCTIONS TO VISIBILITY.

* THESE STATIONS ARE NOT UNDER NWS QUALITY CONTROL. THEY ALSO MAY NOT
  REPORT WEATHER SUCH AS PRECIPITATION OR FOG.

ILZ001-002-007-009-015-016-024-292100-
NORTHWEST ILLINOIS

CITY           SKY/WX    TMP DP  RH WIND       PRES   REMARKS
MOLINE         LGT RAIN  73  68  84 S10       30.19S
STERLING*      TSTM      73  70  88 N9G22     30.22R FOG
SAVANNA*       PTSUNNY   85  73  65 CALM      30.17F HX  92
$$

ILZ003-004-008-010-011-017-018-292100-
NORTH CENTRAL ILLINOIS

CITY           SKY/WX    TMP DP  RH WIND       PRES   REMARKS
ROCKFORD       LGT RAIN  87  73  62 NE8       30.19F HX  94
FREEPORT*      MOSUNNY   83  73  71 E3        30.21F HX  89
ROCHELLE*      CLOUDY    81  75  83 CALM      30.20F HX  86
DE KALB*       MOSUNNY   82  73  74 S5        30.20F HX  87
$$

ILZ005-006-012>014-019>023-292100-
NORTHEAST ILLINOIS

CITY           SKY/WX    TMP DP  RH WIND       PRES   REMARKS
CHICAGO-OHARE  TSTM      77  70  79 W10       30.22R VSB 1
CHICAGO-MIDWAY PTSUNNY   85  69  58 E12       30.18F HX  89
AURORA         PTSUNNY   77  68  73 S9        30.19F
LANSING*       SUNNY     86  73  64 SE5       30.19F HX  94
JOLIET*        MOSUNNY   87  74  65 SE8       30.18F HX  95
WAUKEGAN       CLOUDY    81  72  74 E7        30.20F HX  85
DUPAGE AIRPORT MOSUNNY   83  69  62 SE7       30.19F HX  86
KANKAKEE*      MOSUNNY   87  73  63 SE3       30.19F HX  93
WHEELING       TSTM      79  71  76 NE3       30.22S HX  82
MORRIS*        SUNNY     87  73  63 CALM      30.17F HX  94
ROMEOVILLE*    MOSUNNY   84  75  75 SE7       30.18F HX  91
$$

LMZ740>746-292100-
SOUTHERN LAKE MICHIGAN

STATION/POSITION SKY/WX   TEMP    WIND        PRES    VSBY  WAVE
                          AIR SEA DIR/SP/G                  HT/PER
                          (F)     (DEG/KT/KT) (MB)    (MI)  (FT/S)
SOUTHERN BUOY              76 80  170/  2/  4 1022.7F         1
WILMETTE HARBOR            75 75   70/  8/ 10   N/A           1/ 2
HARRISON CRIB              76      50/ 11/ 12   N/A
BURNHAM HARBOR             79      50/  5/  8   N/A
CALUMET HARBOR             79      20/  7/ 11 1022.9F
BURNS HARBOR               78      20/ 10/ 11 1023.7F
MICHIGAN CITY              77     360/  8/  9   N/A
MICHIGAN CITY 6N           78 77   20/  6/  8   N/A           0
ST. JOSEPH                 77 77   10/ 10/ 10 1022.6F         1
$$

ILZ025>027-034>036-040-047-049-050-058-095>099-292100-
WEST-CENTRAL ILLINOIS

CITY           SKY/WX    TMP DP  RH WIND       PRES   REMARKS
QUINCY         TSTM      78  73  84 E5        30.17F HX  81
GALESBURG*     PTSUNNY   86  74  66 CALM      30.17S THUNDER HX  93
MACOMB*        MOSUNNY   82  77  85 CALM      30.18F HX  89
JACKSONVILLE*  PTSUNNY   88  74  64 E8        30.15F HX  97
PITTSFIELD*    MOSUNNY   90  74  60 E3        30.17F HX  99
$$

ILZ028>032-037-038-041>044-048-051>054-059>061-292100-
CENTRAL ILLINOIS

CITY           SKY/WX    TMP DP  RH WIND       PRES   REMARKS
PONTIAC        MOSUNNY   88  76  66 SE3       30.18F HX  99
BLOOMINGTON    MOSUNNY   84  73  69 SE7       30.19F HX  90
DECATUR        SUNNY     88  73  61 SE5       30.17F HX  95
PEORIA         SUNNY     87  74  64 E3        30.16F HX  95
LACON*         MOSUNNY   86  74  66 E8        30.17F HX  94
LINCOLN*       MOSUNNY   90  75  62 SE7       30.17F HX 100
SPRINGFIELD    MOSUNNY   89  74  60 E8        30.16F HX  98
TAYLORVILLE    SUNNY     88  74  62 E8        30.16F HX  96
$$

ILZ033-039-045-046-055>057-062-063-292100-
EAST-CENTRAL ILLINOIS

CITY           SKY/WX    TMP DP  RH WIND       PRES   REMARKS
CHAMPAIGN      PTSUNNY   87  74  64 SE6       30.19F HX  95
RANTOUL*       SUNNY     89  74  61 SE3       30.19F HX  97
MATTOON        SUNNY     87  68  52 CALM      30.17F HX  90
PARIS*         SUNNY     87  74  64 CALM      30.18F HX  95
$$

ILZ079-100>102-292100-
SOUTHWEST ILLINOIS

CITY           SKY/WX    TMP DP  RH WIND       PRES   REMARKS
BELLEVILLE     MOSUNNY   91  75  57 VRB7      30.13F HX 102
CAHOKIA*       SUNNY     93  71  48 E10       30.14F HX 100
SPARTA*        SUNNY     89  77  68 NE7       30.15F HX 102
$$

ILZ064>066-069>071-074>076-080>082-084>086-088>090-092>094-292100-
SOUTH-CENTRAL ILLINOIS

CITY           SKY/WX    TMP DP  RH WIND       PRES   REMARKS
CARBONDALE     SUNNY     90  73  57 NE7       30.14F HX  98
CAIRO*         SUNNY     89  75  62 NE10      30.11F HX  99
EFFINGHAM*     SUNNY     89  74  61 E5        30.18F HX  97
MARION         MOSUNNY   93  72  49 E6        30.15F HX 100
MT. VERNON     SUNNY     91  72  52 CALM      30.16F HX  98
CENTRALIA*     SUNNY     90  75  61 E3        30.15F HX 100
SALEM*         MOSUNNY   91  74  58 NE6       30.16F HX 100
METROPOLIS*    SUNNY     92  75  56 NE6       30.12F HX 103
$$

ILZ067-068-072-073-078-083-087-091-292100-
SOUTHEAST ILLINOIS

CITY           SKY/WX    TMP DP  RH WIND       PRES   REMARKS
LAWRENCEVILLE  SUNNY     89  70  53 CALM      30.17F HX  94
FLORA*         SUNNY     89  73  58 NE5       30.16F HX  97
FAIRFIELD*     SUNNY     89  71  55 NE3       30.15F HX  95
HARRISBURG*    SUNNY     91  73  55 E6        30.14F HX  98
ROBINSON*      SUNNY     87  74  65 CALM      30.18F HX  96
CARMI*         SUNNY     90  73  58 N6        30.14F HX  98
$$

ABBREVIATIONS USED IN REMARKS
   TC - TEMPERATURE IN CELSIUS
  WCI - WIND CHILL INDEX
   HX - HEAT INDEX
  VSB - VISIBILITY
$$





USA.gov is the U.S. government's official web portal to all federal, state and local government web resources and services.